La Palma Airport


Codes: GCLA/SPC
Name: La Palma Airport
City: Sta Cruz de la Palma, La Palma Island
Country: Spain
Elevation: 107 ft.
Wikipedia:

Photos at La Palma Airport


   Photos courtesy of SpottingLog. You can add your own sightings and photos by signing up for a free trial today.



No photos found.

Weather at La Palma Airport


Time (UTC)DescriptionTempratureWindCloud coverageVisibilityPressureHumidity
18-Apr-2024 00:00Overcast Clouds21°C4 mph, E99%10000m1016hPa78%
18-Apr-2024 03:00Broken Clouds20°C0 mph, SE83%10000m1016hPa73%
18-Apr-2024 06:00Broken Clouds19°C2 mph, SE57%10000m1016hPa72%
18-Apr-2024 09:00Scattered Clouds20°C2 mph, SE30%10000m1016hPa69%
18-Apr-2024 12:00Few Clouds21°C2 mph, E22%10000m1017hPa69%
18-Apr-2024 15:00Broken Clouds21°C4 mph, NE64%10000m1016hPa66%
18-Apr-2024 18:00Broken Clouds20°C9 mph, NE84%10000m1016hPa68%
18-Apr-2024 21:00Overcast Clouds19°C4 mph, NE100%10000m1018hPa73%
19-Apr-2024 00:00Overcast Clouds19°C4 mph, N96%10000m1019hPa74%
19-Apr-2024 03:00Overcast Clouds18°C4 mph, NE87%10000m1017hPa76%
19-Apr-2024 06:00Overcast Clouds18°C4 mph, N94%10000m1017hPa75%
19-Apr-2024 09:00Overcast Clouds18°C2 mph, NE100%10000m1019hPa71%
19-Apr-2024 12:00Overcast Clouds19°C4 mph, NE100%10000m1019hPa68%
19-Apr-2024 15:00Overcast Clouds19°C7 mph, NE100%10000m1018hPa71%
19-Apr-2024 18:00Overcast Clouds19°C7 mph, NE100%10000m1018hPa76%
19-Apr-2024 21:00Overcast Clouds19°C13 mph, NE91%10000m1019hPa80%
20-Apr-2024 00:00Overcast Clouds18°C16 mph, NE96%10000m1019hPa83%
20-Apr-2024 03:00Broken Clouds18°C11 mph, NE70%10000m1017hPa82%
20-Apr-2024 06:00Broken Clouds18°C13 mph, NE59%10000m1017hPa84%
20-Apr-2024 09:00Broken Clouds18°C11 mph, NE76%10000m1018hPa80%
20-Apr-2024 12:00Light Rain19°C13 mph, NE56%10000m1018hPa77%
20-Apr-2024 15:00Broken Clouds18°C11 mph, NE51%10000m1017hPa78%
20-Apr-2024 18:00Broken Clouds18°C11 mph, NE52%10000m1016hPa76%
20-Apr-2024 21:00Scattered Clouds18°C13 mph, NE32%10000m1017hPa81%
21-Apr-2024 00:00Light Rain18°C16 mph, NE56%10000m1017hPa85%
21-Apr-2024 03:00Light Rain17°C13 mph, NE69%10000m1015hPa85%
21-Apr-2024 06:00Light Rain17°C16 mph, NE84%10000m1015hPa82%
21-Apr-2024 09:00Scattered Clouds17°C13 mph, NE28%10000m1015hPa78%
21-Apr-2024 12:00Scattered Clouds18°C13 mph, NE28%10000m1016hPa77%
21-Apr-2024 15:00Scattered Clouds18°C11 mph, NE45%10000m1015hPa76%
21-Apr-2024 18:00Light Rain18°C11 mph, NE46%10000m1015hPa78%
21-Apr-2024 21:00Light Rain18°C11 mph, NE29%10000m1016hPa84%
22-Apr-2024 00:00Light Rain17°C16 mph, NE62%10000m1016hPa84%
22-Apr-2024 03:00Light Rain17°C13 mph, NE70%10000m1014hPa81%
22-Apr-2024 06:00Broken Clouds17°C16 mph, NE63%10000m1014hPa76%
22-Apr-2024 09:00Scattered Clouds17°C16 mph, NE43%10000m1015hPa72%
22-Apr-2024 12:00Broken Clouds18°C13 mph, NE53%10000m1015hPa69%
22-Apr-2024 15:00Overcast Clouds18°C16 mph, NE96%10000m1015hPa69%
22-Apr-2024 18:00Overcast Clouds18°C13 mph, NE98%10000m1015hPa74%
22-Apr-2024 21:00Overcast Clouds18°C18 mph, NE100%10000m1016hPa76%